Regional Weather Roundup
Issued by NWS

Home | Current Version | Previous Version | Text Only | Print | Product List | Glossary Off
Versions: 1 2 3 4 5 6 7 8 9 10 11 12 13 14 15 16 17 18 19 20 21 22 23 24 25 26 27 28 29 30 31 32 33 34 35 36 37 38 39 40 41 42 43 44 45 46 47 48 49 50

000
ASUS45 KSLC 272310
RWRUT

UTAH REGIONAL WEATHER ROUNDUP
NATIONAL WEATHER SERVICE SALT LAKE CITY UT
500 PM MDT MON APR 27 2015

UTZ001>011-023>025-280000-

NORTHERN UTAH

CITY           SKY/WX    TMP DP  RH WIND       PRES   REMARKS
BRIGHAM CITY   SUNNY     64  31  29 N8        30.19S
HILL AFB       SUNNY     61  37  41 NW10      30.18F
LOGAN          MOSUNNY   62  36  37 N7        30.18F
OGDEN          SUNNY     63  36  36 NW10      30.17F
PROVO AIRPORT  MOSUNNY   61  39  44 W13       30.18F
SALT LAKE CITY MOSUNNY   60  38  43 W14       30.19F
VERNAL         MOSUNNY   62  34  35 NE22G30   30.17S
WENDOVER       SUNNY     63  19  19 SE7       30.21F
HEBER CITY     MOSUNNY   63  34  34 CALM      30.17F
WEST JORDAN    SUNNY     59  39  47 NW8G17    30.20F

$$

UTZ012>022-026-027-280000-

SOUTHERN/CENTRAL UTAH

CITY           SKY/WX    TMP DP  RH WIND       PRES   REMARKS
BLANDING       MOSUNNY   65  32  29 W7        30.12F
BRYCE CANYON   CLOUDY    57  30  35 N6        30.17F
CEDAR CITY     SUNNY     62  32  32 N12       30.13F
DELTA          MOSUNNY   61  32  32 N5G16     30.17F
HANKSVILLE     SUNNY     70  32  24 N10       30.08S
MILFORD        SUNNY     62  30  29 N17G30    30.15F
MOAB/CYNLANDS  SUNNY     66  37  34 VRB7      30.05F
PRICE          NOT AVBL
ST GEORGE      CLEAR     75  32  20 N7        30.01F
KANAB          MOSUNNY   70  30  23 CALM      30.07F

$$

REGIONAL REPORTS     COLORADO/ARIZONA

CITY           SKY/WX    TMP DP  RH WIND       PRES   REMARKS
CRAIG, CO      PTSUNNY   57  39  51 N15G23    30.15F
GRAND JUNCTION MOSUNNY   64  41  42 W17G23    30.06F
RIFLE          PTSUNNY   64  38  38 NW18G25   30.08S
MONTROSE       MOSUNNY   62  36  37 NW13G21   30.08F
CORTEZ         PTSUNNY   66  29  24 N6        30.02F
PAGE, AZ       NOT AVBL
GRAND CANYON   SUNNY     59  29  31 E5        30.13S
KINGMAN        SUNNY     76  28  17 N7G21     29.98F
FLAGSTAFF      PTSUNNY   59  32  36 E12       30.11F

$$

REGIONAL REPORTS    NEVADA/IDAHO/WYOMING

CITY           SKY/WX    TMP DP  RH WIND       PRES   REMARKS
LAS VEGAS, NV  MOSUNNY   80  21  11 N8        29.95F
ELY            SUNNY     60  17  18 N9G17     30.19F
ELKO           SUNNY     63  16  16 SE7       30.20F
POCATELLO, ID  SUNNY     62  21  20 N9        30.24F
BURLEY         SUNNY     60  25  26 E5        30.22F
EVANSTON, WY   CLOUDY    52  30  43 E7        30.24F
ROCK SPRINGS   PTSUNNY   50  34  54 NE10      30.26S
KEMMERER       CLOUDY    50  32  50 SE3       30.26F

$$


USA.gov is the U.S. government's official web portal to all federal, state and local government web resources and services.